OneWeb SL0107

operational
NORAD ID: 48048 Int'l Des: 2021-025 Owner: ONEWEBN Country: UK Constellation: oneweb
LEOCIRCULARPOLARONEWEB_TYPE

Über OneWeb SL0107

Beschreibung wird geladen...

Live-Position

3D-Globus wird geladen...

Nächste Überflüge

Höhenverlauf

Altitude vs Time

uPlot chart will show altitude changes over time

Zweizeiliger Elementsatz

1 48048U 21025G 26094.89793809 .00000104 00000-0 25018-3 0 9992
2 48048 87.9009 334.7974 0001685 71.8350 288.2962 13.13470555243909
Epoch: 4. Apr. 2026 • Age: 11 hours

Aktueller Status

Höhe 1213.7 km
Geschwindigkeit 7.25 km/s
Subsatellitenpunkt 36.68°N, 12.01°E
Startdatum 25. März 2021
Alter 5 years
Typ internet

Technische Details

Klassifizierung Payload
Masse 148.00 kg
Trockenmasse 140.00 kg
Gesamtmasse 148.00 kg
Länge 1.30 m
Durchmesser 1.00 m
Spannweite 5.00 m
Form Trapezoid+2 pan
Hersteller ONEWUS
Bus-Typ ARROW
Phasenstatus In Orbit
Besitzer/Staat ONEWEBN/UK

Große Konstellationen

Loading constellations...